SL-8 DEB *

Satellite information

Favourite Embed

Satellite Type and Status

DEBRISIN ORBIT

Key statistics

Satellite SL-8 DEB * at a glance.

Uptime

15740

Days in orbit

Revolutions

≈ 14.6

Per day

Orbit

LEO

Low Earth Orbit

Inclination

74.0

Latest

Satellite identification and parameters

Extended collection of information and parameters for SL-8 DEB *.

Object identification

Identified? True

Debris? True

Object name: SL-8 DEB *

International designator: 1982-051E

Object number (NORAD): 18509

Object ID (CCSDS): 18509

Country: COMMONWEALTH OF INDEPENDENT STATES (CIS)

Current information (Y/N): Y

RCS size: SMALL

Orbital parameters

Period: 98.57 minutes

Inclination: 74.0032 deg

SMA: 7068.413 km

Apoapsis: 695.446 km

Periapsis: 685.11 km

RAAN: 295.8887 deg

Eccentricy: 0.0007312

Argument of periapsis: 36.2021 deg

Mean anomaly: 88.7675 deg

Mean motion: 14.60897983 rev/day

Mean motion (dot): 0.00001508 rev/day2

B* drag term: 0.00031417 1/REarth

Two-line elements (TLE)

Creation date: July 4, 2025, 10:36 p.m.

Reference frame: TEME

Reference center: EARTH

Epoch: July 4, 2025, 5:42 p.m. UTC

TLE line 0: 0 SL-8 DEB *

TLE line 1: 1 18509U 82051E 25185.73783729 .00001508 00000-0 31417-3 0 9999

TLE line 2: 2 18509 74.0032 295.8887 0007312 36.2021 88.7675 14.60897983 27279

Live tracking on map

Real-time ground track for satellite SL-8 DEB *.

In-orbit conjunctions

A list of the most updated potential collisions computed for object SL-8 DEB *.

Target Orbit TCA Probability of collision Miss distance Type
DELTA 1 DEB SSO 2025-07-02 18:40:53 0.0001513901 267.0 (m) DEBRIS
DELTA 1 DEB SSO 2025-01-04 07:46:04 0.0001541969 32.0 (m) DEBRIS
FENGYUN 1C DEB SSO 2024-11-15 19:48:53 0.002189701 125.0 (m) DEBRIS
COSMOS 2251 DEB LEO 2024-07-21 02:43:25 0.0001580594 25.0 (m) DEBRIS
FENGYUN 1C DEB SSO 2024-06-12 17:33:51 0.0001274435 241.0 (m) DEBRIS

Associated space launch

Military communications satellite

SL-8 DEB * was lifted into orbit during the mission ‘Kosmos-3M | Strela-2M 28’, on board a Kosmos-3M space rocket.

The launch took place on June 1, 1982, 4:37 a.m. from 132/1 (132L).

For more information about the launch, click the button.

Launch to space Kosmos-3M | Strela-2M 28
Kosmos-3M | Strela-2M 28

Agency: N/A

Status: Launch Successful

Launch date: June 1, 1982, 4:37 a.m. UTC

Rocket: Kosmos-3M

Launch pad: 132/1 (132L)

Location: Plesetsk Cosmodrome, Russian Federation

...

Latest news about this satellite

There are no fresh news available about this satellite. Check back as we update our databases every day.


Newsletter sign-up

Weekly statistics, charts and insights to help you stay on top of the space industry.